This demonstration page uses our WeatherBlox Daily Observations layout. Learn more.

Left ArrowRight Arrow

Hourly Observations for August 10, 2022

Temp ( °F °C ) Dew Point ( °F °C ) Humidity (%) Winds ( mph kmh ) Pressure ( in mb ) Visibility ( mi km ) Precip ( " mm )
12:56 am 00:56 Clear 70 21 62 16.6 76 76 ESE 3 6 30.13 1020 10 16 0.00 0.00
1:56 am 01:56 Clear 68 20 62 16.4 80 80 Calm 30.14 1021 10 16 0.00 0.00
2:56 am 02:56 Clear 68 19.8 62 16.6 82 82 Calm 30.16 1021 10 16 0.00 0.00
3:56 am 03:56 Clear 68 20.1 61 15.9 77 77 Calm 30.17 1022 10 16 0.00 0.00
4:56 am 04:56 Clear 66 19 61 16.2 84 84 SE 3 6 30.16 1021 10 16 0.00 0.00
5:56 am 05:56 Clear 65 18.4 62 16.5 89 89 Calm 30.17 1022 10 16 0.00 0.00
6:56 am 06:56 Sunny 65 18.6 62 16.6 88 88 Calm 30.19 1022 10 16 0.00 0.00
7:56 am 07:56 Sunny 69 20.7 62 16.9 79 79 Calm 30.20 1023 10 16 0.00 0.00
8:56 am 08:56 Sunny 73 22.8 63 17 70 70 S 3 6 30.21 1023 10 16 0.00 0.00
9:56 am 09:56 Sunny 78 25.7 63 17.1 59 59 S 7 11 30.17 1022 7 11 0.00 0.00
10:56 am 10:56 Mostly Sunny 82 27.7 62 16.6 51 51 S 7 11 30.17 1022 10 16 0.00 0.00
11:56 am 11:56 Sunny 85 29.5 61 16.3 45 45 S 8 13 30.16 1021 10 16 0.00 0.00
12:56 pm 12:56 Sunny 87 30.5 62 16.5 43 43 SSE 8 13 30.14 1021 8 13 0.00 0.00
1:56 pm 13:56 Sunny 90 32 61 16.3 39 39 Calm 30.12 1020 10 16 0.00 0.00
2:56 pm 14:56 Sunny 91 32.7 61 16.1 37 37 E 3 6 30.11 1020 10 16 0.00 0.00
3:56 pm 15:56 Sunny 92 33.3 60 15.7 35 35 E 6 9 30.08 1019 10 16 0.00 0.00
4:56 pm 16:56 Sunny 92 33.4 61 16.3 36 36 ESE 6 9 30.08 1019 10 16 0.00 0.00
5:56 pm 17:56 Sunny 91 32.9 62 16.7 38 38 SE 7 11 30.08 1018 10 16 0.00 0.00
6:56 pm 18:56 Sunny 90 32.1 62 16.4 39 39 SE 7 11 30.07 1018 10 16 0.00 0.00
7:56 pm 19:56 Sunny 87 30.3 63 17 45 45 ESE 5 7 30.07 1018 10 16 0.00 0.00
8:56 pm 20:56 Partly Cloudy 81 27.4 64 17.8 56 56 ESE 5 7 30.10 1019 10 16 0.00 0.00
9:56 pm 21:56 Mostly Clear 78 25.7 65 18.4 64 64 Calm 30.16 1021 10 16 0.00 0.00
10:56 pm 22:56 Clear 76 24.5 65 18.2 68 68 S 3 6 30.17 1022 10 16 0.00 0.00
11:56 pm 23:56 Clear 76 24.4 64 17.6 66 66 Calm 30.16 1022 10 16 0.00 0.00

Powered by AerisWeather